This demonstration page uses our WeatherBlox Daily Observations layout. Learn more.

Left ArrowRight Arrow

Hourly Observations for May 22, 2020

Temp ( °F °C ) Dew Point ( °F °C ) Humidity (%) Winds ( mph kmh ) Pressure ( in mb ) Visibility ( mi km ) Precip ( " mm )
12:34 am 00:34 Cloudy with Mist and Fog 61 16 61 16 100 100 E 16 26 29.88 1012 3 4 0.00 0.00
12:56 am 00:56 Cloudy with Mist and Fog 61 16.1 60 15.6 97 97 E 15 24 29.90 1013 1 2 0.00 0.00
1:06 am 01:06 Cloudy with Mist and Fog 61 16 61 16 100 100 E 13 20 29.88 1012 3 5 0.00 0.00
1:56 am 01:56 Cloudy with Mist and Fog 61 16.1 60 15.6 97 97 ESE 14 22 29.89 1012 3 5 0.00 0.00
2:06 am 02:06 Cloudy with Light Rain 61 16 61 16 100 100 ESE 13 20 29.87 1011 2 3 0.00 0.00
2:40 am 02:40 Cloudy with Mist and Fog 61 16 61 16 100 100 E 7 11 29.86 1011 4 6 0.00 0.00
2:56 am 02:56 Cloudy with Mist and Fog 61 16.1 60 15.6 97 97 E 7 11 29.88 1012 3 5 0.00 0.00
3:41 am 03:41 Cloudy with Mist and Fog 61 16 61 16 100 100 ENE 5 7 29.84 1010 3 5 0.00 0.00
3:56 am 03:56 Cloudy with Heavy Rain 61 16.1 60 15.6 97 97 SE 9 15 29.86 1011 3 4 0.05 1.27
4:04 am 04:04 Cloudy with Thunderstorms 61 16 61 16 100 100 ESE 10 17 29.84 1010 3 5 0.04 1.02
4:14 am 04:14 Cloudy with Strong Thunderstorms 61 16 61 16 100 100 ESE 8 13 29.83 1010 3 4 0.12 3.05
4:30 am 04:30 Cloudy with Thunderstorms 61 16 61 16 100 100 ESE 9 15 29.81 1009 3 5 0.18 4.57
4:40 am 04:40 Cloudy with Nearby Thunderstorms 61 16 61 16 100 100 E 12 19 29.81 1009 4 6 0.18 4.57
4:53 am 04:53 Cloudy with Nearby Thunderstorms 61 16 61 16 100 100 ESE 13 20 29.80 1009 3 5 0.00 0.00
4:56 am 04:56 Cloudy with Mist and Fog 60 15.6 60 15.6 100 100 ESE 10 17 29.81 1010 3 5 0.18 4.57
5:46 am 05:46 Cloudy with Mist and Fog 61 16 59 15 94 94 E 13 20 29.80 1009 2 3 0.01 0.25
5:56 am 05:56 Cloudy with Light Rain 60 15.6 59 15 96 96 ESE 10 17 29.83 1010 2 2 0.01 0.25
6:27 am 06:27 Cloudy with Light Rain 61 16 61 16 100 100 SSE 9 15 29.84 1010 2 3 0.00 0.00
6:43 am 06:43 Cloudy with Light Rain 61 16 59 15 94 94 SSE 7 11 29.83 1010 4 6 0.02 0.51
6:56 am 06:56 Cloudy with Light Rain 60 15.6 59 15 96 96 S 5 7 29.84 1011 4 6 0.03 0.76
7:01 am 07:01 Cloudy with Light Rain 61 16 59 15 94 94 Calm 29.82 1010 4 6 0.00 0.00
7:20 am 07:20 Cloudy with Rain 61 16 59 15 94 94 ESE 6 9 29.83 1010 3 4 0.04 1.02
7:28 am 07:28 Cloudy with Thunderstorms 61 16 59 15 94 94 ESE 7 11 29.83 1010 2 3 0.07 1.78
7:39 am 07:39 Cloudy with Nearby Thunderstorms 61 16 59 15 94 94 ENE 9 15 29.83 1010 3 4 0.00 0.00
7:46 am 07:46 Cloudy with Nearby Thunderstorms 61 16 59 15 94 94 NE 9 15 29.84 1010 4 6 0.13 3.30
7:56 am 07:56 Cloudy with Nearby Thunderstorms 60 15.6 59 15 96 96 ENE 8 13 29.85 1011 3 5 0.16 4.06
8:08 am 08:08 Cloudy with Rain 61 16 59 15 94 94 NNE 7 11 29.84 1010 4 6 0.03 0.76
8:40 am 08:40 Cloudy with Nearby Thunderstorms 61 16 57 14 88 88 SSE 5 7 29.85 1011 4 6 0.16 4.06
8:56 am 08:56 Cloudy with Nearby Thunderstorms 59 15 58 14.4 96 96 SE 6 9 29.88 1012 5 8 0.21 5.33
9:04 am 09:04 Cloudy with Rain 59 15 57 14 94 94 ESE 3 6 29.87 1011 4 6 0.03 0.76
9:15 am 09:15 Cloudy with Rain 59 15 59 15 100 100 SE 5 7 29.87 1011 3 4 0.07 1.78
9:41 am 09:41 Cloudy with Rain 59 15 59 15 100 100 ENE 3 6 29.86 1011 3 5 0.17 4.32
9:56 am 09:56 Partly Cloudy with Rain 59 15 58 14.4 96 96 NE 5 7 29.87 1012 10 16 0.21 5.33
10:56 am 10:56 Cloudy with Rain 59 15 57 13.9 93 93 NNW 6 9 29.86 1011 10 16 0.13 3.30
11:56 am 11:56 Cloudy with Rain 59 15 57 13.9 93 93 N 13 20 29.86 1011 10 16 0.10 2.54
12:56 pm 12:56 Cloudy with Rain 59 15 58 14.4 96 96 NNW 12 19 29.85 1011 10 16 0.13 3.30
1:56 pm 13:56 Cloudy with Rain 59 15 56 13.3 90 90 NW 16 26 29.83 1010 10 16 0.10 2.54
2:56 pm 14:56 Cloudy with Light Rain 59 15 55 12.8 87 87 NNW 17 28 29.81 1010 10 16 0.06 1.52
3:56 pm 15:56 Cloudy with Light Rain 59 15 54 12.2 83 83 N 22 35 29.81 1009 10 16 0.06 1.52
4:56 pm 16:56 Cloudy with Light Rain 60 15.6 55 12.8 84 84 NNE 20 31 29.79 1009 10 16 0.05 1.27
5:56 pm 17:56 Cloudy with Light Rain 60 15.6 56 13.3 86 86 N 8 13 29.79 1009 10 16 0.02 0.51
6:56 pm 18:56 Cloudy with Light Rain 60 15.6 56 13.3 86 86 N 10 17 29.80 1009 10 16 0.01 0.25
7:24 pm 19:24 Cloudy with Light Rain 59 15 55 13 88 88 NNW 7 11 29.80 1009 10 16 0.00 0.00
7:36 pm 19:36 Cloudy with Light Rain 59 15 57 14 94 94 NNW 8 13 29.80 1009 10 16 0.00 0.00
7:56 pm 19:56 Cloudy 60 15.6 57 13.9 90 90 NNW 6 9 29.80 1009 10 16 0.00 0.00
8:56 pm 20:56 Cloudy 59 15 57 13.9 93 93 NNW 3 6 29.81 1010 10 16 0.00 0.00
9:56 pm 21:56 Cloudy 59 15 57 13.9 93 93 NNE 9 15 29.83 1010 10 16 0.00 0.00
10:56 pm 22:56 Clear 58 14.4 57 13.9 97 97 N 6 9 29.84 1011 10 16 0.00 0.00
11:56 pm 23:56 Clear 57 13.9 56 13.3 96 96 NE 6 9 29.83 1010 10 16 0.00 0.00

Powered by AerisWeather